TimeMST,TemperatureF,Dew PointF,Humidity,Sea Level PressureIn,VisibilityMPH,Wind Direction,Wind SpeedMPH,Gust SpeedMPH,PrecipitationIn,Events,Conditions,WindDirDegrees,DateUTC
12:56 AM,19.9,17.1,89,30.22,-9999.0,NE,5.8,-,N/A,,Unknown,40,2013-11-28 07:56:00
1:56 AM,18.0,16.0,92,30.25,-9999.0,North,5.8,-,N/A,,Unknown,10,2013-11-28 08:56:00
2:56 AM,18.0,16.0,92,30.25,-9999.0,Calm,Calm,-,N/A,,Unknown,0,2013-11-28 09:56:00
3:56 AM,19.9,19.0,96,30.27,-9999.0,Calm,Calm,-,N/A,,Unknown,0,2013-11-28 10:56:00
4:56 AM,19.0,17.1,92,30.28,-9999.0,SW,4.6,-,N/A,,Unknown,230,2013-11-28 11:56:00
5:56 AM,19.9,18.0,92,30.29,-9999.0,WSW,3.5,-,N/A,,Unknown,250,2013-11-28 12:56:00
6:56 AM,21.0,18.0,88,30.30,-9999.0,West,3.5,-,N/A,,Unknown,260,2013-11-28 13:56:00
7:56 AM,21.9,19.0,89,30.30,-9999.0,Calm,Calm,-,N/A,,Unknown,0,2013-11-28 14:56:00
8:56 AM,24.1,21.9,91,30.32,-9999.0,Calm,Calm,-,N/A,,Unknown,0,2013-11-28 15:56:00
9:56 AM,25.0,21.9,88,30.32,-9999.0,SSE,8.1,-,N/A,,Unknown,160,2013-11-28 16:56:00
10:56 AM,26.1,23.0,88,30.31,-9999.0,South,9.2,-,N/A,,Unknown,170,2013-11-28 17:56:00
11:56 AM,25.0,23.0,92,30.30,-9999.0,South,9.2,-,N/A,,Unknown,170,2013-11-28 18:56:00
12:56 PM,26.1,23.0,88,30.27,-9999.0,SSE,10.4,-,N/A,,Unknown,150,2013-11-28 19:56:00
1:56 PM,26.1,23.0,88,30.25,-9999.0,SSE,15.0,20.7,N/A,,Unknown,150,2013-11-28 20:56:00
2:56 PM,26.1,23.0,88,30.24,-9999.0,South,12.7,-,N/A,,Unknown,170,2013-11-28 21:56:00
3:56 PM,24.1,21.9,91,30.23,-9999.0,SSE,16.1,-,N/A,,Unknown,160,2013-11-28 22:56:00
4:56 PM,24.1,21.9,91,30.22,-9999.0,SSE,13.8,-,N/A,,Unknown,160,2013-11-28 23:56:00
5:56 PM,24.1,21.9,91,30.21,-9999.0,SSE,17.3,-,N/A,,Unknown,160,2013-11-29 00:56:00
6:56 PM,24.1,21.0,88,30.20,-9999.0,SSE,19.6,-,N/A,,Unknown,160,2013-11-29 01:56:00
7:56 PM,25.0,21.9,88,30.18,-9999.0,SSE,16.1,-,N/A,,Unknown,160,2013-11-29 02:56:00
8:56 PM,24.1,21.9,91,30.16,-9999.0,South,15.0,-,N/A,,Unknown,170,2013-11-29 03:56:00
9:56 PM,23.0,19.9,88,30.14,-9999.0,SSE,9.2,-,N/A,,Unknown,160,2013-11-29 04:56:00
10:56 PM,19.0,17.1,92,30.14,-9999.0,SSE,11.5,-,N/A,,Unknown,160,2013-11-29 05:56:00
11:56 PM,19.0,16.0,88,30.11,-9999.0,SSE,12.7,-,N/A,,Unknown,160,2013-11-29 06:56:00